Regional Weather Roundup
Issued by NWS Burlington, VT

Home | Current Version | Previous Version | Text Only | Print | Product List | Glossary On
Versions: 1 2 3 4 5 6 7 8 9 10 11 12 13 14 15 16 17 18 19 20 21 22 23 24 25 26 27 28 29 30 31 32 33 34 35 36 37 38 39 40 41 42 43 44 45 46 47 48 49 50
000
ASUS41 KBTV 310430
RWRBTV
VERMONT REGIONAL WEATHER ROUNDUP
NATIONAL WEATHER SERVICE BURLINGTON VT
1200 AM EDT SUN AUG 31 2014

NOTE: "FAIR" INDICATES FEW OR NO CLOUDS BELOW 12,000 FEET WITH NO
SIGNIFICANT WEATHER AND/OR OBSTRUCTIONS TO VISIBILITY.

* THESE REPORTS ARE NOT UNDER NWS QUALITY CONTROL AND/OR DO NOT
  REPORT WEATHER SUCH AS PRECIPITATION AND FOG.

VTZ001>019-310500-
_____VERMONT_____


CITY           SKY/WX    TMP DP  RH WIND       PRES   REMARKS
BURLINGTON     CLOUDY    72  59  63 S18G28    30.00F
MONTPELIER     PTCLDY    65  59  81 S7        30.11S
MORRISVILLE    MOCLDY    69  59  70 S3        30.05F
ST. JOHNSBURY*   N/A     67  59  75 MISG      30.05S
MIDDLEBURY*    MOCLDY    70  60  71 S13       30.06F
RUTLAND*       CLOUDY    63  57  82 SE10      30.09F
SPRINGFIELD    CLEAR     60  58  92 W3        30.11S
HIGHGATE*      FAIR      72  60  66 S14G21    29.96F
NEWPORT*       MOCLDY    65  59  79 S9G16     30.04F
BENNINGTON     PTCLDY    65  59  81 CALM      30.12S
SUTTON*          N/A     63 N/A N/A MISG        N/A
GALLUP MILLS*    N/A      0 N/A N/A MISG        N/A
UNION VILLAGE*   N/A     59 N/A N/A MISG        N/A
MT. MANSFIELD*   N/A     57 N/A N/A W20G31      N/A

_____LAKE CHAMPLAIN_____


CITY           SKY/WX    TMP DP  RH WIND       PRES   REMARKS
BURTON ISLAND*   N/A     73  63  68 S21         N/A
COLCHESTER RF*   N/A     72  63  73 S24         N/A
DIAMOND ISL*     N/A    N/A N/A N/A S22         N/A

$$

NYZ007-026>031-035-052-083-310500-
_____NORTHERN NEW YORK_____


CITY           SKY/WX    TMP DP  RH WIND       PRES   REMARKS
PLATTSBURGH    MOCLDY    69  62  78 S5        29.98F
SARANAC LAKE   MOCLDY    67  60  78 SW9       30.03F
MASSENA        MOCLDY    74  64  71 S14G20    29.92F
OGDENSBURG*    PTCLDY    73  66  78 SW12      29.93S
POTSDAM*       PTCLDY    73  66  78 SW9       29.94F
PARISHVILLE*     N/A     70 N/A N/A S13         N/A
WATERTOWN      CLOUDY    72  64  76 S8G17     29.94F
FT DRUM        CLOUDY    69  65  87 S14       29.96F
ALBANY         MOCLDY    70  61  73 S8        30.09F
GLENS FALLS    CLOUDY    69  61  75 S7        30.08S

$$
NHZ002-005-011-310500-
_____NEW HAMPSHIRE_____


CITY           SKY/WX    TMP DP  RH WIND       PRES   REMARKS
LEBANON        PTCLDY    67  58  72 S8        30.08F
KEENE          CLOUDY    66  55  68 S6        30.12F
PLYMOUTH         N/A     56  56 100 CALM      30.10S FOG
WHITEFIELD     MOCLDY    56  53  90 CALM      30.08F

$$

_____REGIONAL QUEBEC LOCATIONS_____


CITY           SKY/WX    TMP DP  RH WIND       PRES   REMARKS
MONTREAL       CLOUDY    72  63  73 SE12      29.91F
QUEBEC CITY    MOCLDY    64  63  94 CALM      29.93F
SHERBROOKE     PTCLDY    66  59  77 SE7       30.00F

_____REGIONAL ONTARIO LOCATIONS_____


CITY           SKY/WX    TMP DP  RH WIND       PRES   REMARKS
OTTAWA         CLOUDY    72  64  78 S13G24    29.89F

______KEY______
VSB  - VISIBILITY IN MILES
WCI  - WIND CHILL INDEX
HX   - HEAT INDEX
$$
NNNN


USA.gov is the U.S. government's official web portal to all federal, state and local government web resources and services.